Regional Weather Roundup
Issued by NWS

Home | Current Version | Previous Version | Graphics & Text | Print | Product List | Glossary On
Versions: 1 2 3 4 5 6 7 8 9 10 11 12 13 14 15 16 17 18 19 20 21 22 23 24 25 26 27 28 29 30 31 32 33 34 35 36 37 38 39 40 41 42 43 44 45 46 47 48 49 50
000
ASUS43 KBIS 290402
RWRND

NORTH DAKOTA REGIONAL WEATHER ROUNDUP
NATIONAL WEATHER SERVICE BISMARCK ND
1100 PM CDT WED JUN 28 2017

NOTE: "FAIR" INDICATES FEW OR NO CLOUDS BELOW 12,000 FEET WITH NO
SIGNIFICANT WEATHER AND/OR OBSTRUCTIONS TO VISIBILITY.


NDZ001>003-009>011-017-290500-
NORTHWEST NORTH DAKOTA

CITY           SKY/WX    TMP DP  RH WIND       PRES   REMARKS
WILLISTON      CLOUDY    63  49  60 N3        29.77R
MINOT          CLEAR     62  49  62 NW6       29.74R
MINOT AFB      PTCLDY    59  50  72 N5        29.74R
$$

NDZ018>021-031>035-040>046-290500-
SOUTHWEST NORTH DAKOTA

CITY           SKY/WX    TMP DP  RH WIND       PRES   REMARKS
BISMARCK       CLOUDY    66  53  63 E6        29.75S
DICKINSON      PTCLDY    60  43  53 S3        29.76R
GARRISON         N/A     60  50  69 NE3       29.75R
HETTINGER ARPT CLOUDY    69  37  30 E9        29.80R
$$

NDZ004>008-012>016-024-026-027-054-290500-
NORTHEAST NORTH DAKOTA

CITY           SKY/WX    TMP DP  RH WIND       PRES   REMARKS
GRAND FORKS    CLOUDY    64  63  96 NE6       29.69R
GRND FRKS AFB  FOG       58  58 100 CALM      29.69R VSB 1/2
DEVILS LAKE    CLEAR     60  55  83 NE9       29.73R
$$

NDZ022-023-025-028>030-036>039-047>053-290500-
SOUTHEAST NORTH DAKOTA

CITY           SKY/WX    TMP DP  RH WIND       PRES   REMARKS
FARGO          MOCLDY    64  62  93 NW6       29.68R
JAMESTOWN      CLEAR     64  51  62 W6        29.73R
$$





USA.gov is the U.S. government's official web portal to all federal, state and local government web resources and services.